Date,TemperatureHighF,TemperatureAvgF,TemperatureLowF,DewpointHighF,DewpointAvgF,DewpointLowF,HumidityHigh,HumidityAvg,HumidityLow,PressureMaxIn,PressureMinIn,WindSpeedMaxMPH,WindSpeedAvgMPH,GustSpeedMaxMPH,PrecipitationSumIn
2013-1-1,29,13,0,29,11,0,99,91,67,0.00,40.00,14,3,19,0.00
2013-1-2,31,27,19,30,26,17,99,95,89,0.00,40.00,15,10,22,0.00
2013-1-3,32,23,18,22,16,12,95,78,56,0.00,40.00,11,6,16,0.00
2013-1-4,34,20,10,17,13,9,98,75,45,0.00,40.00,5,2,6,0.00
2013-1-5,22,13,7,21,13,7,99,96,92,0.00,40.00,11,4,19,0.00
2013-1-6,29,17,8,22,15,8,99,94,76,0.00,40.00,12,3,14,0.00
2013-1-7,36,29,18,24,22,18,99,75,60,0.00,40.00,14,7,17,0.00
2013-1-8,40,28,11,34,24,11,99,87,67,0.00,40.00,20,8,24,0.00
2013-1-9,38,29,20,29,22,16,94,78,62,0.00,40.00,16,7,18,0.00
2013-1-10,43,37,30,34,29,-4,97,75,21,0.00,40.00,9,5,14,0.00
2013-1-11,32,16,5,32,16,5,99,99,99,0.00,40.00,13,8,19,0.00
2013-1-12,5,3,-2,4,-1,-6,99,84,73,0.00,40.00,16,9,24,0.00
2013-1-13,8,1,-5,3,-2,-8,93,86,79,0.00,40.00,13,5,15,0.00
2013-1-14,15,4,-4,8,1,-15,96,87,60,0.00,40.00,6,3,7,0.00
2013-1-15,38,23,9,37,19,5,100,86,71,0.00,40.00,22,7,27,0.00
2013-1-16,39,30,19,36,27,17,99,90,78,0.00,40.00,21,9,24,0.00
2013-1-17,30,27,24,30,26,22,99,94,82,0.00,40.00,8,5,12,0.00
2013-1-18,43,36,30,32,30,27,99,80,62,0.00,40.00,11,5,12,0.00
2013-1-19,37,18,1,33,13,-4,89,81,69,0.00,40.00,20,8,32,0.00
2013-1-20,6,0,-8,3,-8,-34,95,73,15,0.00,40.00,18,8,27,0.00
2013-1-21,5,-3,-11,-2,-9,-15,82,76,65,0.00,40.00,14,8,17,0.00
2013-1-22,15,8,0,13,5,-3,99,86,79,0.00,40.00,6,2,10,0.00
2013-1-23,10,4,-2,10,0,-7,99,84,69,0.00,40.00,11,5,16,0.00
2013-1-24,22,5,-3,20,2,-8,91,83,79,0.00,40.00,17,8,23,0.00
2013-1-25,24,10,3,23,2,-35,94,73,13,0.00,40.00,11,6,16,0.00
2013-1-26,31,17,5,23,13,-1,93,86,71,0.00,40.00,12,5,13,0.00
2013-1-27,33,20,11,22,17,11,99,88,62,0.00,40.00,7,2,9,0.00
2013-1-28,35,28,20,34,27,20,99,96,86,0.00,40.00,6,2,7,0.00
2013-1-29,26,19,14,26,19,12,100,99,93,0.00,40.00,16,4,19,0.00
2013-1-30,9,-2,-10,7,-8,-15,91,78,65,0.00,40.00,14,9,17,0.00
2013-1-31,-7,-11,-17,-14,-16,-21,84,75,69,0.00,40.00,15,8,21,0.00
2013-2-1,23,10,-13,22,7,-16,99,87,73,0.00,40.00,7,4,14,0.00
2013-2-2,38,16,6,32,13,4,99,90,78,0.00,40.00,16,6,25,0.00
2013-2-3,24,19,12,20,16,11,97,91,78,0.00,40.00,12,6,16,0.00
2013-2-4,38,24,12,36,23,11,99,93,80,0.00,40.00,12,5,14,0.00
2013-2-5,37,30,24,33,26,21,96,85,65,0.00,40.00,15,6,19,0.00
2013-2-6,41,29,22,32,26,20,99,89,54,0.00,40.00,14,7,16,0.00
2013-2-7,26,21,17,26,21,17,99,99,99,0.00,40.00,9,6,11,0.00
2013-2-8,29,25,20,28,24,20,99,99,99,0.00,40.00,9,5,12,0.00
2013-2-9,31,26,22,29,26,22,100,98,93,0.00,40.00,7,3,8,0.00
2013-2-10,29,23,20,29,23,19,99,99,97,0.00,40.00,16,8,24,0.00
2013-2-11,26,22,20,22,20,12,99,92,70,0.00,40.00,12,6,18,0.00
2013-2-12,37,29,20,31,24,19,96,83,67,0.00,40.00,15,5,18,0.00
2013-2-13,39,34,31,37,32,28,99,93,82,0.00,40.00,13,4,17,0.00
2013-2-14,33,26,20,33,22,16,99,86,70,0.00,40.00,18,8,26,0.00
2013-2-15,24,20,18,19,16,12,99,84,67,0.00,40.00,9,4,14,0.00
2013-2-16,43,30,22,35,26,0,99,86,34,0.00,40.00,9,4,12,0.00
2013-2-17,47,36,30,36,32,29,99,87,58,0.00,40.00,14,7,20,0.00
2013-2-18,31,14,1,31,11,-2,99,88,74,0.00,40.00,16,10,24,0.00
2013-2-19,5,-2,-11,-2,-8,-14,87,78,68,0.00,40.00,10,6,12,0.00
2013-2-20,14,4,-7,11,-1,-10,96,80,64,0.00,40.00,12,8,16,0.00
2013-2-21,25,18,12,20,15,11,99,87,62,0.00,40.00,11,6,12,0.00
2013-2-22,31,20,13,21,14,10,94,81,46,0.00,40.00,7,4,9,0.00
2013-2-23,42,22,9,28,19,9,99,89,55,0.00,40.00,9,5,10,0.00
2013-2-24,34,28,21,28,25,7,99,89,33,0.00,40.00,12,4,16,0.00
2013-2-25,47,30,16,28,21,-10,99,73,14,0.00,40.00,11,4,15,0.00
2013-2-26,45,33,24,32,24,2,97,72,27,0.00,40.00,7,3,9,0.00
2013-2-27,31,29,23,31,27,23,99,94,82,0.00,40.00,8,5,13,0.00
2013-2-28,31,25,22,25,22,8,99,90,55,0.00,40.00,10,4,12,0.00
2013-3-1,32,25,21,27,23,20,99,95,76,0.00,40.00,7,4,9,0.00
2013-3-2,48,34,25,33,30,25,99,86,53,0.00,40.00,7,4,11,0.00
2013-3-3,42,33,28,37,32,28,99,96,73,0.00,40.00,11,7,13,0.00
2013-3-4,34,29,22,33,28,21,99,97,86,0.00,40.00,17,9,21,0.00
2013-3-5,24,18,10,21,16,10,99,93,80,0.00,40.00,17,6,24,0.00
2013-3-6,22,14,4,17,12,3,99,92,76,0.00,40.00,16,7,19,0.00
2013-3-7,31,24,15,28,23,14,99,94,82,0.00,40.00,13,6,17,0.00
2013-3-8,37,26,18,28,24,16,99,91,64,0.00,40.00,9,4,10,0.00
2013-3-9,34,26,17,30,24,14,99,91,76,0.00,40.00,11,5,22,0.00
2013-3-10,28,20,10,18,15,9,96,80,67,0.00,40.00,11,4,16,0.00
2013-3-11,39,27,16,27,21,14,96,79,53,0.00,40.00,18,9,29,0.00
2013-3-12,26,21,13,26,16,2,99,82,53,0.00,40.00,17,10,24,0.00
2013-3-13,51,28,11,28,18,8,95,70,35,0.00,40.00,8,5,13,0.00
2013-3-14,62,42,29,40,34,29,99,79,44,0.00,40.00,12,4,17,0.00
2013-3-15,27,19,9,26,17,6,97,94,91,0.00,40.00,14,9,17,0.00
2013-3-16,21,10,2,12,6,1,98,85,69,0.00,40.00,10,4,14,0.00
2013-3-17,26,18,10,26,16,6,99,94,82,0.00,40.00,14,9,21,0.00
2013-3-18,20,13,6,19,6,3,95,74,56,0.00,40.00,26,13,32,0.00
2013-3-19,18,12,5,12,6,2,92,79,63,0.00,40.00,16,6,21,0.00
2013-3-20,26,14,3,11,6,1,95,74,49,0.00,40.00,16,6,18,0.00
2013-3-21,25,15,5,16,8,1,89,76,47,0.00,40.00,17,10,23,0.00
2013-3-22,26,18,13,26,17,10,99,94,84,0.00,40.00,11,8,13,0.00
2013-3-23,25,20,16,20,17,-4,99,88,29,0.00,40.00,14,7,16,0.00
2013-3-24,27,20,15,23,18,14,99,91,76,0.00,40.00,10,5,15,0.00
2013-3-25,29,17,5,18,12,-1,99,84,33,0.00,40.00,7,4,9,0.00
2013-3-26,34,21,10,22,17,10,99,84,60,0.00,40.00,12,7,16,0.00
2013-3-27,42,26,12,31,22,12,99,88,65,0.00,40.00,12,6,14,0.00
2013-3-28,46,31,20,36,28,19,99,91,66,0.00,40.00,12,5,12,0.00
2013-3-29,48,34,23,37,30,23,99,90,66,0.00,40.00,9,4,10,0.00
2013-3-30,53,39,28,38,31,-100,99,81,41,0.00,40.00,9,4,14,0.00
2013-3-31,35,29,19,27,21,13,90,73,49,0.00,40.00,11,6,16,0.00
2013-4-1,40,25,14,20,15,12,99,69,35,0.00,40.00,10,4,12,0.00
2013-4-2,44,29,18,22,19,15,98,68,39,0.00,40.00,17,6,21,0.00
2013-4-3,65,41,27,34,29,20,91,66,32,0.00,40.00,14,9,22,0.00
2013-4-4,42,34,28,30,25,4,100,73,22,0.00,40.00,11,7,14,0.00
2013-4-5,48,35,25,34,25,15,99,72,36,0.00,40.00,17,10,23,0.00
2013-4-6,47,37,30,37,33,30,99,88,61,0.00,40.00,13,6,21,0.00
2013-4-7,50,38,33,39,35,32,99,90,63,0.00,40.00,17,6,20,0.00
2013-4-8,34,26,16,34,24,12,99,95,82,0.00,40.00,13,9,17,0.00
2013-4-9,29,20,12,19,13,9,89,76,55,0.00,40.00,12,6,17,0.00
2013-4-10,38,30,24,23,19,-10,95,70,14,0.00,40.00,13,6,16,0.00
2013-4-11,39,32,27,30,25,20,99,77,52,0.00,40.00,14,7,17,0.00
2013-4-12,34,29,25,32,28,24,99,97,87,0.00,40.00,7,3,11,0.00
2013-4-13,42,34,29,35,30,27,99,87,60,0.00,40.00,16,8,20,0.00
2013-4-14,29,27,26,29,27,25,99,99,97,0.00,40.00,23,15,31,0.00
2013-4-15,36,31,28,33,30,28,99,95,86,0.00,40.00,13,8,19,0.00
2013-4-16,35,30,27,31,27,11,99,90,51,0.00,40.00,8,4,9,0.00
2013-4-17,35,28,23,29,26,16,99,89,63,0.00,40.00,9,4,12,0.00
2013-4-18,37,28,18,25,21,5,99,76,52,0.00,40.00,12,6,19,0.00
2013-4-19,38,30,22,23,18,-8,95,65,15,0.00,40.00,11,5,13,0.00
2013-4-20,35,28,21,33,22,15,99,77,59,0.00,40.00,12,8,17,0.00
2013-4-21,40,35,29,36,31,27,99,86,64,0.00,40.00,14,8,22,0.00
2013-4-22,36,30,23,28,23,17,95,77,53,0.00,40.00,11,6,16,0.00
2013-4-23,45,32,16,25,19,-10,99,65,14,0.00,40.00,17,5,21,0.00
2013-4-24,38,34,26,37,27,15,99,79,41,0.00,40.00,17,7,22,0.00
2013-4-25,63,43,24,40,28,13,91,59,34,0.00,40.00,9,5,14,0.00
2013-4-26,76,56,33,40,34,30,99,56,21,0.00,40.00,8,3,11,0.00
2013-4-27,77,62,49,42,36,27,61,40,26,0.00,40.00,16,6,20,0.00
2013-4-28,65,58,45,40,34,22,52,41,24,0.00,40.00,9,6,15,0.00
2013-4-29,68,50,36,56,36,8,99,63,20,0.00,40.00,16,7,21,0.00
2013-4-30,49,44,35,49,35,20,99,71,40,0.00,40.00,29,14,33,0.00
2013-5-1,51,37,25,27,22,-8,93,61,13,0.00,40.00,11,5,14,0.00
2013-5-2,55,41,24,32,24,22,98,58,31,0.00,40.00,13,4,16,0.00
2013-5-3,56,41,29,34,26,18,97,62,23,0.00,40.00,14,7,17,0.00
2013-5-4,59,43,26,34,27,23,99,60,27,0.00,40.00,9,5,11,0.00
2013-5-5,63,47,28,36,30,27,99,60,28,0.00,40.00,9,4,11,0.00
2013-5-6,72,54,33,37,34,30,99,53,25,0.00,40.00,11,4,12,0.00
2013-5-7,78,59,38,46,40,32,96,56,27,0.00,40.00,7,3,10,0.00
2013-5-8,68,57,43,48,44,36,99,65,43,0.00,40.00,19,7,21,0.00
2013-5-9,63,50,36,35,30,21,79,51,29,0.00,40.00,12,7,17,0.00
2013-5-10,70,52,34,41,32,-100,97,53,31,0.00,40.00,19,7,24,0.00
2013-5-11,56,44,33,33,24,-100,98,51,27,0.00,40.00,9,5,12,0.00
2013-5-12,74,53,28,33,29,20,92,47,23,0.00,40.00,10,4,12,0.00
2013-5-13,90,74,58,51,43,31,45,34,25,0.00,40.00,19,9,24,0.00
2013-5-14,73,68,60,61,47,40,96,50,32,0.00,40.00,29,11,39,0.00
2013-5-15,78,62,51,47,42,37,78,53,27,0.00,40.00,15,4,17,0.00
2013-5-16,60,48,51,58,23,-100,99,87,57,0.00,40.00,21,6,24,0.00
2013-5-17,78,61,51,59,46,-100,99,78,48,0.00,40.00,9,5,11,0.00
2013-5-18,78,65,57,64,60,57,99,86,51,0.00,40.00,11,4,14,0.00
2013-5-19,61,55,52,61,55,52,99,99,99,0.00,40.00,19,9,22,0.00
2013-5-20,58,53,49,58,53,48,99,99,99,0.00,40.00,16,9,26,0.00
2013-5-21,50,47,44,50,46,44,99,99,99,0.00,40.00,14,8,20,0.00
2013-5-22,69,58,46,50,43,35,99,65,30,0.00,40.00,19,8,25,0.00
2013-5-23,69,60,49,53,48,44,99,69,41,0.00,40.00,19,10,25,0.00
2013-5-24,64,57,52,58,49,23,95,76,31,0.00,40.00,16,9,23,0.00
2013-5-25,74,60,50,65,56,35,99,91,28,0.00,40.00,24,9,29,0.00
2013-5-26,74,61,53,66,59,53,99,94,72,0.00,40.00,21,9,28,0.00
2013-5-27,60,56,53,60,56,53,99,99,99,0.00,40.00,10,5,14,0.00
2013-5-28,76,63,53,59,56,53,99,80,52,0.00,40.00,14,4,16,0.00
2013-5-29,75,64,53,63,57,36,99,82,28,0.00,40.00,14,6,17,0.00
2013-5-30,74,64,59,67,62,58,99,94,71,0.00,40.00,21,11,27,0.00
2013-5-31,65,57,50,64,57,50,99,99,96,0.00,40.00,18,8,21,0.00
2013-6-1,63,54,48,49,46,-100,99,80,52,0.00,40.00,13,8,26,0.00
2013-6-2,69,55,41,53,45,41,99,73,41,0.00,40.00,14,4,17,0.00
2013-6-3,55,51,49,54,49,45,99,92,73,0.00,40.00,21,13,29,0.00
2013-6-4,55,52,49,54,51,41,99,98,72,0.00,40.00,12,6,14,0.00
2013-6-5,61,53,49,58,52,49,100,95,78,0.00,40.00,9,5,14,0.00
2013-6-6,69,58,40,59,46,40,99,71,45,0.00,40.00,9,3,12,0.00
2013-6-7,78,63,49,59,54,49,99,75,43,0.00,40.00,9,4,11,0.00
2013-6-8,65,60,57,63,59,56,99,98,78,0.00,40.00,9,3,11,0.00
2013-6-9,77,64,54,63,55,51,99,76,43,0.00,40.00,7,3,10,0.00
2013-6-10,80,68,58,64,58,37,99,75,29,0.00,40.00,12,5,15,0.00
2013-6-11,78,68,60,62,55,50,94,67,39,0.00,40.00,10,4,13,0.00
2013-6-12,73,63,59,63,60,59,99,92,63,0.00,40.00,12,4,14,0.00
2013-6-13,75,66,54,60,56,53,99,75,50,0.00,40.00,10,4,15,0.00
2013-6-14,78,70,62,67,60,51,97,72,46,0.00,40.00,15,8,20,0.00
2013-6-15,76,67,52,54,50,46,97,60,36,0.00,40.00,18,9,23,0.00
2013-6-16,77,67,51,57,53,33,96,65,34,0.00,40.00,20,8,23,0.00
2013-6-17,73,61,53,60,57,53,99,87,57,0.00,40.00,12,4,16,0.00
2013-6-18,82,65,48,61,55,36,99,76,20,0.00,40.00,6,2,7,0.00
2013-6-19,86,73,62,67,60,36,88,66,29,0.00,40.00,14,9,19,0.00
2013-6-20,84,74,67,71,66,60,96,80,51,0.00,40.00,14,8,19,0.00
2013-6-22,81,77,64,68,65,63,99,68,58,0.00,40.00,9,4,12,0.00
2013-6-23,69,62,59,60,58,54,99,89,60,0.00,40.00,19,10,22,0.00
2013-6-24,87,84,75,68,64,60,76,53,41,0.00,40.00,11,7,15,0.00
2013-6-25,85,75,68,78,71,61,99,89,52,0.00,40.00,11,6,14,0.00
2013-6-26,87,74,58,69,62,58,99,72,45,0.00,40.00,14,4,16,0.00
2013-6-27,82,71,59,60,57,52,96,64,40,0.00,40.00,15,6,22,0.00
2013-6-28,80,69,56,63,60,56,99,76,50,0.00,40.00,11,4,20,0.00
2013-7-3,88,83,72,62,58,56,64,44,34,0.00,40.00,10,5,15,0.00
2013-7-4,86,74,63,71,61,57,99,67,39,0.00,40.00,9,5,12,0.00
2013-7-5,86,74,59,69,64,59,99,75,46,0.00,40.00,10,3,12,0.00
2013-7-6,88,73,65,72,68,65,99,87,56,0.00,40.00,11,3,14,0.00
2013-7-7,85,70,59,70,62,58,99,78,40,0.00,40.00,5,2,6,0.00
2013-7-8,89,72,64,72,63,-100,97,80,51,0.00,40.00,11,4,15,0.00
2013-7-9,78,67,60,71,62,57,99,86,60,0.00,40.00,12,5,17,0.00
2013-7-10,84,68,51,62,53,-100,99,68,42,0.00,40.00,7,2,9,0.00
2013-7-11,91,73,65,73,65,60,91,78,54,0.00,40.00,9,5,11,0.00
2013-7-12,90,81,75,76,69,62,95,69,43,0.00,40.00,9,4,12,0.00
2013-7-13,91,78,62,74,65,62,99,71,40,0.00,40.00,7,3,12,0.00
2013-7-14,74,69,62,67,63,55,99,83,55,0.00,40.00,11,4,13,0.00
2013-7-15,84,73,66,76,68,58,99,88,57,0.00,40.00,11,6,13,0.00
2013-7-16,91,77,68,73,67,55,96,72,43,0.00,40.00,9,5,15,0.00
2013-7-17,93,78,65,71,68,57,99,75,46,0.00,40.00,10,5,14,0.00
2013-7-18,89,80,70,76,70,54,96,76,44,0.00,40.00,12,6,17,0.00
2013-7-19,86,73,57,64,59,54,99,67,38,0.00,40.00,13,6,19,0.00
2013-7-20,70,64,61,63,60,51,99,87,65,0.00,40.00,11,5,12,0.00
2013-7-21,87,69,59,71,63,58,99,84,49,0.00,40.00,9,5,14,0.00
2013-7-22,75,65,59,67,61,57,99,87,57,0.00,40.00,7,4,9,0.00
2013-7-23,77,66,57,63,60,57,99,82,54,0.00,40.00,7,3,9,0.00
2013-7-24,83,71,56,66,61,56,99,74,45,0.00,40.00,11,3,14,0.00
2013-7-25,75,66,57,65,58,48,99,78,53,0.00,40.00,12,5,22,0.00
2013-7-26,69,60,50,57,49,45,99,70,41,0.00,40.00,7,4,11,0.00
2013-7-27,72,59,42,51,46,42,99,65,38,0.00,40.00,7,4,9,0.00
2013-7-28,75,64,49,50,48,46,95,61,40,0.00,40.00,9,5,12,0.00
2013-7-29,72,65,59,68,57,47,96,74,55,0.00,40.00,10,6,16,0.00
2013-7-30,75,62,54,65,58,53,99,89,53,0.00,40.00,6,2,7,0.00
2013-7-31,80,68,58,61,55,48,99,68,35,0.00,40.00,6,2,11,0.00
2013-8-1,80,67,50,58,53,50,99,67,36,0.00,40.00,10,2,11,0.00
2013-8-2,77,64,54,60,53,47,99,72,39,0.00,40.00,6,2,8,0.00
2013-8-3,78,70,61,59,55,52,88,62,45,0.00,40.00,12,8,15,0.00
2013-8-4,76,66,61,68,60,55,98,83,66,0.00,40.00,7,4,12,0.00
2013-8-5,83,70,57,62,58,54,99,71,37,0.00,40.00,6,3,9,0.00
2013-8-6,77,68,57,62,58,55,99,75,48,0.00,40.00,14,5,22,0.00
2013-8-7,74,62,59,59,56,49,99,81,50,0.00,40.00,7,4,9,0.00
2013-8-9,76,70,57,52,49,46,80,48,36,0.00,40.00,11,6,15,0.00
2013-8-10,81,64,46,65,53,46,99,74,39,0.00,40.00,6,2,7,0.00
2013-8-11,79,67,54,64,55,48,99,71,39,0.00,40.00,7,3,9,0.00
2013-8-12,83,64,52,57,44,-100,99,65,28,0.00,40.00,10,2,12,0.00
2013-8-13,83,68,57,57,49,-100,93,57,33,0.00,40.00,11,5,13,0.00
2013-8-14,82,69,60,60,52,45,63,55,42,0.00,40.00,11,5,12,0.00
2013-8-15,81,65,61,64,49,-100,99,70,37,0.00,40.00,9,4,11,0.00
2013-8-16,82,69,60,60,52,-100,97,63,42,0.00,40.00,9,5,14,0.00
2013-8-17,91,72,59,67,60,-100,99,74,39,0.00,40.00,11,5,16,0.00
2013-8-18,89,77,67,70,66,55,99,72,37,0.00,40.00,11,5,13,0.00
2013-8-19,97,74,58,67,52,-100,99,62,25,0.00,40.00,6,3,9,0.00
2013-8-20,100,83,64,65,59,51,89,49,26,0.00,40.00,10,4,12,0.00
2013-8-21,84,73,62,63,55,49,96,59,32,0.00,40.00,12,6,16,0.00
2013-8-22,87,74,58,54,49,45,87,44,28,0.00,40.00,9,4,14,0.00
2013-8-23,89,75,65,70,63,52,92,67,47,0.00,40.00,11,6,19,0.00
2013-8-24,94,82,74,73,65,-100,96,62,38,0.00,40.00,7,4,9,0.00
2013-8-25,99,82,66,69,63,55,99,60,28,0.00,40.00,11,3,13,0.00
2013-8-26,81,75,68,78,68,57,99,79,44,0.00,40.00,10,4,13,0.00
2013-8-27,96,72,61,69,64,60,99,82,40,0.00,40.00,5,2,7,0.00
2013-8-28,95,89,80,69,64,61,58,44,36,0.00,40.00,6,3,7,0.00
2013-8-29,88,77,66,71,68,65,99,75,49,0.00,40.00,19,5,35,0.00
2013-8-30,92,76,64,71,66,63,99,77,40,0.00,40.00,11,3,16,0.00
2013-8-31,79,72,64,67,57,-100,89,64,42,0.00,40.00,13,5,18,0.00
2013-9-1,74,64,54,63,56,49,99,79,54,0.00,40.00,8,3,11,0.00
2013-9-2,85,67,50,56,53,45,99,67,36,0.00,40.00,8,3,12,0.00
2013-9-3,89,72,62,67,61,55,93,72,43,0.00,40.00,6,2,8,0.00
2013-9-4,83,71,60,65,56,48,99,66,39,0.00,40.00,19,8,22,0.00
2013-9-5,92,76,62,65,58,50,65,54,40,0.00,40.00,8,5,10,0.00
2013-9-6,96,80,64,71,68,64,99,73,37,0.00,40.00,4,2,6,0.00
2013-9-7,76,70,65,70,66,61,99,88,65,0.00,40.00,16,6,19,0.00
2013-9-8,79,69,63,71,66,63,99,91,71,0.00,40.00,17,4,22,0.00
2013-9-9,78,70,64,68,64,58,99,85,52,0.00,40.00,12,4,14,0.00
2013-9-10,81,68,57,60,56,51,99,71,37,0.00,40.00,11,4,14,0.00
2013-9-11,81,66,55,57,51,44,99,66,29,0.00,40.00,6,2,10,0.00
2013-9-12,76,62,50,52,48,44,99,66,34,0.00,40.00,6,3,8,0.00
2013-9-13,83,67,54,53,51,45,94,60,34,0.00,40.00,10,6,12,0.00
2013-9-14,68,61,60,63,55,-100,99,85,45,0.00,40.00,9,4,14,0.00
2013-9-15,65,56,44,53,45,40,99,72,41,0.00,40.00,9,5,12,0.00
2013-9-16,72,58,48,55,50,45,99,76,45,0.00,40.00,12,7,19,0.00
2013-9-17,79,66,55,62,58,51,99,77,54,0.00,40.00,12,6,18,0.00
2013-9-18,70,63,62,67,63,62,99,98,90,0.00,40.00,17,6,18,0.00
2013-9-19,65,56,51,59,51,47,94,84,73,0.00,40.00,21,10,27,0.00
2013-9-20,67,53,41,47,42,38,99,71,36,0.00,40.00,11,4,13,0.00
2013-9-21,73,57,42,47,42,-100,99,65,34,0.00,40.00,11,6,16,0.00
2013-9-22,83,68,52,63,55,47,96,66,46,0.00,40.00,12,8,15,0.00
2013-9-23,74,65,56,63,58,55,99,80,54,0.00,40.00,11,5,16,0.00
2013-9-24,77,61,47,55,46,39,99,67,27,0.00,40.00,9,3,12,0.00
2013-9-25,78,67,57,54,50,42,82,55,38,0.00,40.00,13,8,19,0.00
2013-9-26,69,62,50,61,54,43,99,78,54,0.00,40.00,13,7,17,0.00
2013-9-27,56,50,46,51,47,43,99,88,70,0.00,40.00,9,4,11,0.00
2013-9-28,65,53,46,48,41,-100,99,72,36,0.00,40.00,20,5,24,0.00
2013-9-29,75,58,45,50,45,42,92,65,35,0.00,40.00,7,4,12,0.00
2013-9-30,78,61,48,53,47,44,96,67,34,0.00,40.00,16,3,21,0.00
2013-10-1,66,55,49,36,35,34,62,48,32,0.00,40.00,4,2,5,0.00
2013-10-2,66,56,45,46,40,35,99,60,34,0.00,40.00,14,4,18,0.00
2013-10-3,57,51,45,44,40,35,96,69,43,0.00,40.00,12,5,15,0.00
2013-10-4,48,39,33,43,37,33,99,95,68,0.00,40.00,13,8,21,0.00
2013-10-5,43,37,34,42,36,26,99,97,62,0.00,40.00,20,10,25,0.00
2013-10-6,64,44,28,43,36,28,99,79,45,0.00,40.00,8,3,12,0.00
2013-10-7,72,52,36,51,44,36,99,77,40,0.00,40.00,7,3,11,0.00
2013-10-8,72,55,41,49,43,38,99,71,32,0.00,40.00,12,4,15,0.00
2013-10-9,70,54,41,46,40,36,99,65,32,0.00,40.00,7,4,11,0.00
2013-10-10,68,54,38,58,47,38,99,82,55,0.00,40.00,7,3,8,0.00
2013-10-11,64,56,46,63,55,46,99,98,84,0.00,40.00,26,10,38,0.00
2013-10-12,55,46,39,45,34,-100,99,68,39,0.00,40.00,23,14,28,0.00
2013-10-13,55,42,30,45,38,30,99,88,50,0.00,40.00,12,4,16,0.00
2013-10-14,46,43,38,45,43,38,99,97,89,0.00,40.00,23,14,26,0.00
2013-10-15,50,42,35,42,38,34,99,89,59,0.00,40.00,11,6,16,0.00
2013-10-16,61,44,30,45,35,30,100,76,38,0.00,40.00,10,3,12,0.00
2013-10-17,48,42,34,42,34,27,99,76,47,0.00,40.00,13,6,19,0.00
2013-10-18,48,40,32,42,36,31,99,87,56,0.00,40.00,16,8,22,0.00
2013-10-19,51,42,35,45,36,-100,99,84,62,0.00,40.00,7,3,7,0.00
2013-10-20,46,39,33,45,38,32,99,97,85,0.00,40.00,15,7,24,0.00
2013-10-21,42,33,27,35,30,27,99,91,62,0.00,40.00,5,2,6,0.00
2013-10-22,37,34,32,36,33,27,99,97,70,0.00,40.00,9,3,10,0.00
2013-10-23,40,35,33,35,33,29,99,92,67,0.00,40.00,7,4,12,0.00
2013-10-24,42,35,24,35,30,24,99,84,64,0.00,40.00,8,3,13,0.00
2013-10-25,62,44,30,43,34,27,99,73,38,0.00,40.00,14,6,19,0.00
2013-10-26,48,37,28,32,27,-100,100,73,45,0.00,40.00,11,4,12,0.00
2013-10-27,47,38,28,38,32,26,99,80,58,0.00,40.00,16,7,20,0.00
2013-10-28,32,27,21,24,22,20,99,83,64,0.00,40.00,12,8,15,0.00
2013-10-29,36,30,26,31,26,22,91,83,76,0.00,40.00,8,4,10,0.00
2013-10-30,39,35,31,38,34,31,99,96,91,0.00,40.00,6,3,11,0.00
2013-10-31,45,36,28,42,34,27,99,92,74,0.00,40.00,12,4,16,0.00
2013-11-1,44,40,34,42,37,34,99,91,75,0.00,40.00,14,6,19,0.00
2013-11-2,58,39,27,35,28,-100,99,74,35,0.00,40.00,9,3,10,0.00
2013-11-3,47,42,36,39,35,31,89,77,63,0.00,40.00,11,4,16,0.00
2013-11-4,41,35,25,32,25,16,87,68,47,0.00,40.00,26,13,30,0.00
2013-11-5,41,28,20,24,22,18,94,77,50,0.00,40.00,10,5,12,0.00
2013-11-6,47,33,24,31,26,19,99,80,36,0.00,40.00,7,3,9,0.00
2013-11-7,48,33,20,31,24,20,99,75,41,0.00,40.00,16,6,18,0.00
2013-11-8,45,40,34,41,35,26,99,86,71,0.00,40.00,17,8,26,0.00
2013-11-9,41,34,22,38,27,-100,99,78,48,0.00,40.00,23,10,30,0.00
2013-11-10,42,28,20,33,21,1,99,77,43,0.00,40.00,14,5,22,0.00
2013-11-11,24,16,6,6,3,-2,91,59,36,0.00,40.00,9,4,14,0.00
2013-11-12,47,29,13,32,21,6,99,75,50,0.00,40.00,8,4,12,0.00
2013-11-13,53,42,29,39,36,29,99,81,54,0.00,40.00,15,4,17,0.00
2013-11-14,50,41,29,39,35,29,99,83,52,0.00,40.00,13,5,17,0.00
2013-11-15,56,36,24,36,30,24,99,82,41,0.00,40.00,6,2,8,0.00
2013-11-16,45,34,25,37,29,-100,99,87,62,0.00,40.00,4,2,6,0.00
2013-11-17,35,32,30,35,32,28,99,98,89,0.00,40.00,13,5,17,0.00
2013-11-18,44,32,20,31,27,19,99,84,58,0.00,40.00,11,5,12,0.00
2013-11-19,40,34,29,34,32,29,99,91,80,0.00,40.00,12,5,14,0.00
2013-11-20,29,21,12,29,19,11,99,91,75,0.00,40.00,14,8,21,0.00
2013-11-21,13,8,1,11,5,1,97,88,68,0.00,40.00,11,6,17,0.00
2013-11-22,20,10,-3,17,6,-4,96,84,72,0.00,40.00,9,4,17,0.00
2013-11-23,18,6,-7,14,1,-100,99,85,62,0.00,40.00,9,4,12,0.00
2013-11-24,45,29,16,31,22,14,98,77,48,0.00,40.00,12,6,15,0.00
2013-11-25,36,31,26,30,26,20,99,83,69,0.00,40.00,17,9,24,0.00
2013-11-26,23,17,12,19,13,9,99,83,61,0.00,40.00,12,5,16,0.00
2013-11-27,37,24,12,26,19,9,93,84,58,0.00,40.00,16,7,24,0.00
2013-11-28,26,22,18,22,18,14,96,84,61,0.00,40.00,9,4,12,0.00
2013-11-29,42,26,17,29,23,17,99,90,56,0.00,40.00,11,4,14,0.00
2013-11-30,38,30,21,36,27,-100,99,92,76,0.00,40.00,4,1,5,0.00
2013-12-1,44,31,23,36,29,22,99,93,70,0.00,40.00,9,5,11,0.00
2013-12-2,32,28,21,32,28,21,99,99,99,0.00,40.00,12,7,15,0.00
2013-12-3,21,14,9,20,14,5,99,98,74,0.00,40.00,13,7,17,0.00
2013-12-4,9,7,3,9,7,3,99,97,92,0.00,40.00,17,11,23,0.00
2013-12-5,0,-4,-7,-2,-6,-17,95,89,56,0.00,40.00,21,12,25,0.00
2013-12-6,-4,-9,-15,-8,-12,-17,95,88,76,0.00,40.00,13,7,17,0.00
2013-12-7,-4,-14,-20,-12,-18,-100,94,84,69,0.00,40.00,7,2,9,0.00
2013-12-8,1,-6,-13,-3,-8,-14,95,90,78,0.00,40.00,11,4,13,0.00
2013-12-9,17,0,-13,17,-3,-16,99,87,63,0.00,40.00,14,7,24,0.00
2013-12-10,20,5,-6,18,2,-9,95,87,67,0.00,40.00,13,6,22,0.00
2013-12-11,17,-1,-17,14,-4,-18,95,88,74,0.00,40.00,10,3,12,0.00
2013-12-12,32,18,8,24,16,7,99,92,68,0.00,40.00,19,4,21,0.00
2013-12-13,11,0,-2,10,-1,-4,99,94,91,0.00,40.00,17,9,21,0.00
2013-12-14,13,5,-2,9,2,-100,96,89,82,0.00,40.00,11,4,12,0.00
2013-12-15,8,5,2,7,4,0,99,95,91,0.00,40.00,12,7,14,0.00
2013-12-16,38,28,7,33,25,7,99,87,67,0.00,40.00,22,10,27,0.00
2013-12-17,34,27,20,29,22,17,91,80,65,0.00,40.00,19,7,23,0.00
2013-12-18,44,30,11,32,26,10,99,85,58,0.00,40.00,17,7,20,0.00
2013-12-19,9,2,-6,8,1,-7,99,95,81,0.00,40.00,9,4,12,0.00
2013-12-20,6,-3,-12,2,-4,-12,99,94,80,0.00,40.00,6,1,7,0.00
2013-12-21,0,-4,-11,-2,-7,-100,99,94,89,0.00,40.00,11,4,12,0.00
2013-12-22,-2,-6,-18,-3,-8,-19,95,92,82,0.00,40.00,6,2,11,0.00
2013-12-23,-2,-15,-24,-3,-16,-25,95,93,84,0.00,40.00,8,3,10,0.00
2013-12-24,31,20,4,31,19,2,99,95,87,0.00,40.00,11,5,14,0.00
2013-12-25,33,29,23,32,27,22,99,92,76,0.00,40.00,15,7,20,0.00
2013-12-26,34,28,24,30,27,24,99,94,79,0.00,40.00,12,4,15,0.00
2013-12-27,47,37,27,37,33,26,99,88,67,0.00,40.00,8,3,11,0.00
2013-12-28,35,16,-5,34,13,-100,99,92,82,0.00,40.00,15,6,26,0.00
2013-12-29,8,0,-9,7,-4,-11,97,85,73,0.00,40.00,8,3,12,0.00
2013-12-30,9,5,-1,9,4,-3,99,94,82,0.00,40.00,9,4,12,0.00
2013-12-31,3,-4,-8,1,-6,-10,97,92,84,0.00,40.00,12,6,13,0.00
2014-1-1,5,-3,-6,1,-5,-7,95,91,80,0.00,40.00,6,2,7,0.00
2014-1-2,9,-4,-17,9,-5,-17,99,94,81,0.00,40.00,9,3,17,0.00